sat.trackr.live / text

‹ back to catalog

STARLINK-11345 [DTC]

NORAD 62093 · 2024-220F

PAYLOAD ACTIVE UNKNOWN

§ Identity

Operator
Country
US
Launch date
2024-11-25
Launch site
AFETR
Launch vehicle
Mass (kg)
RCS (m²)

Purposes: comms

External: N2YO · Heavens-Above · Gunter

§ Orbital elements

Epoch: 2026-09-20T19:54:49.369248Z

Period
91.66 min
Inclination
42.9994°
Eccentricity
0.0001234
Mean motion
15.70946438 rev/d
Perigee alt
355.4 km
Apogee alt
357.0 km
Semi-major
6,734.3 km
B*
1.4978e-3
RAAN
306.8350°
Arg perigee
298.8920°
Mean anomaly
61.1823°
Rev number
10,564

§ Raw data

STARLINK-11345 [DTC]1 62093U 24220F   26263.82973807  .00197244  00000+0  14978-2 0  99902 62093  42.9994 306.8350 0001234 298.8920  61.1823 15.70946438105646

JSON: /api/v1/satellites/62093 · /tle

For live sub-satellite position, see the globe view (requires WebGL).

§ Visibility from observer

Set your observer location to see the next 7 days of passes ≥ 10°. The values pass through the URL so the page stays shareable.

No JS? Fill the form by hand. The geolocation button needs JavaScript.